Showing default

ESSA 1 (OT-3), 1982

Orbit data source: Space-Track

ESSA 1 (OT-3), 1982 is a payload satellite owned by ESSA (US) in SSO that was launched on Thu, 03 Feb 1966 UTC via a THOR DELTA C launch vehicle from the Air Force Eastern Test Range (AFETR). Payload-class satellites include a variety of spacecraft equipped with specific instruments for various scientific and technological missions. These include communications satellites like Starlink; space stations such as the ISS; scientific satellites like the Hubble; Earth observation satellites from companies like Planet Labs, Umbra, and HawkEye 360; GPS; miniature CubeSats for education and research; and military/defense satellites.

Loading next visibility...
Identifier
1982, 1966-008A
Orbit
SSO
Last TLE update
11 hours ago
Origin
Manufacturer
RCA/East Windsor
Mission
Non-operational Civil Weather
Bus & Motor
TIROS I, Unknown motor
Mass
138 kg wet, 138 kg dry
Launch date (UTC)
1966-02-03 (59 years ago)
Launch vehicle
THOR DELTA C
Launch site
Air Force Eastern Test Range (AFETR)
Object type
Payload
Rocket body
Debris
Shape & HBR
Cyl, 1.07 m
Radar Cross Section
0.920 m², Medium (>0.1 m² and < 1m²)

Expand to show TLE details & history

TLE from 11 hours ago
0 ESSA 1 (OT-3)
1 01982U 66008A   25128.74088971  .00000218  00000-0  67646-4 0  9996
2 01982  97.8640 184.6346 0078640 273.7529  85.4676 14.48113703 99408
Epoch: 2025-05-08T17:46Z
Definitive object data (Epoch: 2025-05-08T17:46:52.87Z)
Latitude
-0.00006°
Longitude
51.10728°
Altitude
730.813 km
Speed
7.492 km/s
True Right ascension
12h 18m 32s
True Declination
0° 00' 00"
Sunlit
Object was in full shadow at TLE epoch
Visualization TLE readout
Latitude
-44.39791°
Longitude
59.28045°
Altitude
707.864 km
Speed
7.522 km/s
Apparent Right ascension
08h 07m 23s
Apparent Declination
-85° 55' 18"
Sunlit
Object is in full shadow
Visualization observer readout
Local Sidereal Time
13:19:42
Azimuth
185.134° SSW
Elevation
-38.96°
Doppler factor
1
Orbital elements
Apogee altitude
784.788 km
Perigee altitude
673.008 km
Semi-major axis
7,107.035 km
Eccentricity
0.007864
Inclination
97.864°
RAAN
184.6346°
Arg. of periapsis
273.7529°
True anomaly
86.36659°
Mean anomaly
85.4676°
Eccentric anomaly
85.91703°
Mean motion
3.62252 °/min
BSTAR
0.000067646
Orbital period
99.38 mins
Loading maneuver chart data...
Loading SW <> Apogee altitude chart data...
Loading historical data...
Loading historical data...
Loading historical data...
Loading historical data...
Loading historical data...
Loading historical data...
Loading historical data...
Other satellites on launch #8 in the year 1966 (1966-02-03 UTC)

ESSA 1 (OT-3) Visibility forecast

Observer location: undefined°, undefined°

Span
Click to sort rows by Start time (UTC) header in descending order
Start Az.
Max El. time (UTC)
Max El. Az.
Max El.
End time (UTC)
End Az.
9 mins2025-05-09 15:55:04.358Z29.363° NE2025-05-09 16:00:04.358Z107.073° ESE31.352°2025-05-09 16:04:04.358Z163.525° S
6 mins2025-05-09 17:35:04.358Z335.604° NNW2025-05-09 17:38:04.358Z289.054° WNW22.801°2025-05-09 17:41:04.358Z246.317° WSW
8 mins2025-05-10 03:05:04.358Z132.76° SE2025-05-10 03:09:04.358Z56.194° ENE32.38°2025-05-10 03:13:04.358Z3.714° NNE
5 mins2025-05-10 04:45:04.358Z234.937° WSW2025-05-10 04:47:04.358Z266.905° W21.143°2025-05-10 04:50:04.358Z309.971° NW
|